Satellite: NANOSALD
Catalog number: 37361
Epoch time:      11195.47230963
Element set:    0279
Inclination:      071.9555 deg
RA of node:       331.2023 deg
Eccentricity:    0.0036880
Arg of perigee:   092.3693 deg
Mean anomaly:     268.2993 deg
Mean motion:   15.07133433 rev/day
Decay rate:    2.16964e-03 rev/day^2
Epoch rev:           02622
Checksum:              307

Satellite: FO-70
Catalog number: 37380
Epoch time:      11201.40801937
Element set:    0221
Inclination:      071.9737 deg
RA of node:       326.1604 deg
Eccentricity:    0.0018643
Arg of perigee:   220.6063 deg
Mean anomaly:     139.3707 deg
Mean motion:   14.76378394 rev/day
Decay rate:       1.76e-06 rev/day^2
Epoch rev:           03576
Checksum:              294

/EX
SB KEPS @ AMSAT  $ORB11202.W
Orbital Elements  11202.WEATHER

HR AMSAT ORBITAL ELEMENTS FOR WEATHER SATELLITES
FROM WA5QGD FORT WORTH,TX July 21, 2011
Send Subscribe/unsubscribe to KEPS at http://www.amsat.org/mailman/listinfo/kep
BID: ORB11202.W
TO ALL RADIO AMATEURS BT

Satellite: NOAA-10
Catalog number: 16969
Epoch time:      11201.71481230
Element set:    0572
Inclination:      098.6166 deg
RA of node:       231.0447 deg
Eccentricity:    0.0012943
Arg of perigee:   124.9498 deg
Mean anomaly:     235.2891 deg
Mean motion:   14.27468629 rev/day
Decay rate:      -1.16e-06 rev/day^2
Epoch rev:           29243
Checksum:              308

Satellite: NOAA-11
Catalog number: 19531
Epoch time:      11201.86086424
Element set:    0574
Inclination:      098.7528 deg
RA of node:       288.6878 deg
Eccentricity:    0.0011950
Arg of perigee:   091.7888 deg
Mean anomaly:     268.4656 deg
Mean motion:   14.14921347 rev/day
Decay rate:       2.87e-06 rev/day^2
Epoch rev:           17751
Checksum:              344

Satellite: NOAA-12
Catalog number: 21263
Epoch time:      11201.98338509
Element set:    0083
Inclination:      098.7504 deg
RA of node:       219.7681 deg
Eccentricity:    0.0013421
Arg of perigee:   087.7774 deg
Mean anomaly:     272.4943 deg
Mean motion:   14.25725985 rev/day
Decay rate:        6.0e-07 rev/day^2
Epoch rev:           04922
Checksum:              309

Satellite: MET-3/5
Catalog number: 21655
Epoch time:      11201.86395526
Element set:    0165
Inclination:      082.5562 deg
RA of node:       026.9744 deg
Eccentricity:    0.0014803
Arg of perigee:   074.1669 deg
Mean anomaly:     286.1124 deg
Mean motion:   13.17031128 rev/day
Decay rate:        5.1e-07 rev/day^2
Epoch rev:           95815
Checksum:              293

Satellite: MET-2/21
Catalog number: 22782
Epoch time:      11202.82194127
Element set:     154
Inclination:      082.5500 deg
RA of node:       295.4015 deg
Eccentricity:    0.0022612
Arg of perigee:   006.1404 deg
Mean anomaly:     354.0043 deg
Mean motion:   13.83661115 rev/day
Decay rate:        2.8e-07 rev/day^2
Epoch rev:           90334
Checksum:              244

Satellite: OKEAN-4
Catalog number: 23317
Epoch time:      11202.57308645
Element set:     616
Inclination:      082.5405 deg
RA of node:       341.0252 deg
Eccentricity:    0.0022543
Arg of perigee:   010.2986 deg
Mean anomaly:     349.8683 deg
Mean motion:   14.83109025 rev/day
Decay rate:       4.54e-06 rev/day^2
Epoch rev:           90564
Checksum:              281

Satellite: NOAA-14
Catalog number: 23455
Epoch time:      11201.86356848
Element set:    0567
Inclination:      098.8525 deg
RA of node:       284.1649 deg
Eccentricity:    0.0009161
Arg of perigee:   179.3184 deg
Mean anomaly:     180.8002 deg
Mean motion:   14.13824976 rev/day
Decay rate:       -3.4e-07 rev/day^2
Epoch rev:           85383
Checksum:              326

Satellite: NOAA-15
Catalog number: 25338
Epoch time:      11201.79989992
Element set:    0890
Inclination:      098.6568 deg
RA of node:       187.4849 deg
Eccentricity:    0.0010762
Arg of perigee:   000.8238 deg
Mean anomaly:     359.2975 deg
Mean motion:   14.24932943 rev/day
Decay rate:        1.2e-07 rev/day^2
Epoch rev:           68551
Checksum:              351

Satellite: RESURS
Catalog number: 25394
Epoch time:      11202.88280010
Element set:     849
Inclination:      098.3018 deg
RA of node:       203.9963 deg
Eccentricity:    0.0002023
Arg of perigee:   102.4038 deg
Mean anomaly:     257.7368 deg
Mean motion:   14.24235547 rev/day
Decay rate:       -6.0e-08 rev/day^2
Epoch rev:           67724
Checksum:              282

Satellite: FENGYUN1
Catalog number: 25730
Epoch time:      11202.90430044
Element set:     378
Inclination:      098.8185 deg
RA of node:       163.3377 deg
Eccentricity:    0.0022004
Arg of perigee:   214.8675 deg
Mean anomaly:     145.1054 deg
Mean motion:   14.08698450 rev/day
Decay rate:       7.47e-06 rev/day^2
Epoch rev:           62795
Checksum:              297

Satellite: OKEAN-0
Catalog number: 25860
Epoch time:      11201.97244273
Element set:    0384
Inclination:      097.8873 deg
RA of node:       167.4927 deg
Eccentricity:    0.0000556
Arg of perigee:   084.1863 deg
Mean anomaly:     275.9406 deg
Mean motion:   14.73805730 rev/day
Decay rate:       1.40e-06 rev/day^2
Epoch rev:           64563
Checksum:              313

